TimeCDT,TemperatureF,Dew PointF,Humidity,Sea Level PressureIn,VisibilityMPH,Wind Direction,Wind SpeedMPH,Gust SpeedMPH,PrecipitationIn,Events,Conditions,WindDirDegrees,DateUTC
12:15 AM,60.8,51.8,72,30.05,10.0,SSE,5.8,-,N/A,,Clear,150,2013-04-23 05:15:00
12:35 AM,60.8,51.8,72,30.06,10.0,SE,8.1,-,N/A,,Clear,140,2013-04-23 05:35:00
12:55 AM,60.8,51.8,72,30.05,10.0,SE,9.2,-,N/A,,Clear,140,2013-04-23 05:55:00
1:15 AM,60.8,51.8,72,30.03,10.0,SE,10.4,-,N/A,,Clear,140,2013-04-23 06:15:00
1:35 AM,60.8,51.8,72,30.04,10.0,SSE,9.2,-,N/A,,Clear,150,2013-04-23 06:35:00
1:55 AM,60.8,51.8,72,30.03,10.0,SSE,9.2,-,N/A,,Clear,150,2013-04-23 06:55:00
2:15 AM,60.8,53.6,77,30.03,10.0,SSE,10.4,-,N/A,,Clear,150,2013-04-23 07:15:00
2:35 AM,60.8,53.6,77,30.03,10.0,SSE,11.5,-,N/A,,Clear,150,2013-04-23 07:35:00
2:55 AM,60.8,53.6,77,30.02,10.0,SSE,11.5,17.3,N/A,,Clear,150,2013-04-23 07:55:00
3:15 AM,60.8,53.6,77,30.01,10.0,SSE,11.5,-,N/A,,Clear,150,2013-04-23 08:15:00
3:35 AM,59.0,53.6,82,30.02,10.0,SSE,11.5,-,N/A,,Clear,150,2013-04-23 08:35:00
3:55 AM,59.0,53.6,82,30.02,10.0,SSE,9.2,-,N/A,,Clear,150,2013-04-23 08:55:00
4:15 AM,59.0,53.6,82,30.02,10.0,SSE,10.4,-,N/A,,Clear,150,2013-04-23 09:15:00
4:35 AM,59.0,55.4,88,30.02,10.0,SSE,9.2,-,N/A,,Clear,150,2013-04-23 09:35:00
4:55 AM,59.0,55.4,88,30.02,10.0,SSE,8.1,-,N/A,,Scattered Clouds,160,2013-04-23 09:55:00
5:15 AM,59.0,55.4,88,30.02,10.0,SSE,10.4,-,N/A,,Overcast,160,2013-04-23 10:15:00
5:35 AM,59.0,55.4,88,30.03,10.0,SSE,8.1,-,N/A,,Scattered Clouds,160,2013-04-23 10:35:00
5:55 AM,59.0,55.4,88,30.03,10.0,SSE,8.1,-,N/A,,Scattered Clouds,160,2013-04-23 10:55:00
6:15 AM,59.0,55.4,88,30.03,10.0,SSE,6.9,-,N/A,,Scattered Clouds,160,2013-04-23 11:15:00
6:35 AM,59.0,55.4,88,30.03,10.0,SSE,6.9,-,N/A,,Scattered Clouds,160,2013-04-23 11:35:00
6:55 AM,59.0,55.4,88,30.05,10.0,South,5.8,-,N/A,,Mostly Cloudy,170,2013-04-23 11:55:00
7:15 AM,59.0,57.2,94,30.05,10.0,SSE,9.2,-,N/A,,Mostly Cloudy,160,2013-04-23 12:15:00
7:35 AM,60.8,59.0,94,30.05,10.0,South,11.5,-,N/A,,Overcast,170,2013-04-23 12:35:00
7:55 AM,60.8,59.0,94,30.06,10.0,South,11.5,-,N/A,,Overcast,170,2013-04-23 12:55:00
8:15 AM,62.6,59.0,88,30.06,10.0,SSE,12.7,16.1,N/A,,Overcast,160,2013-04-23 13:15:00
8:35 AM,62.6,59.0,88,30.05,7.0,SSE,11.5,17.3,N/A,,Mostly Cloudy,160,2013-04-23 13:35:00
8:55 AM,62.6,59.0,88,30.06,7.0,South,9.2,18.4,N/A,,Mostly Cloudy,170,2013-04-23 13:55:00
9:15 AM,62.6,59.0,88,30.05,7.0,South,10.4,-,N/A,,Mostly Cloudy,170,2013-04-23 14:15:00
9:35 AM,62.6,59.0,88,30.06,7.0,South,9.2,16.1,N/A,,Mostly Cloudy,170,2013-04-23 14:35:00
9:55 AM,62.6,59.0,88,30.07,5.0,South,8.1,-,N/A,,Mostly Cloudy,170,2013-04-23 14:55:00
10:15 AM,64.4,60.8,88,30.07,7.0,South,12.7,18.4,N/A,,Overcast,180,2013-04-23 15:15:00
10:35 AM,66.2,60.8,83,30.07,7.0,South,12.7,-,N/A,,Mostly Cloudy,170,2013-04-23 15:35:00
10:55 AM,66.2,59.0,78,30.07,7.0,South,11.5,-,N/A,,Mostly Cloudy,170,2013-04-23 15:55:00
11:15 AM,68.0,60.8,78,30.06,10.0,South,17.3,24.2,N/A,,Mostly Cloudy,170,2013-04-23 16:15:00
11:35 AM,68.0,59.0,73,30.06,10.0,South,16.1,24.2,N/A,,Mostly Cloudy,180,2013-04-23 16:35:00
11:55 AM,69.8,60.8,73,30.06,10.0,South,19.6,23.0,N/A,,Mostly Cloudy,170,2013-04-23 16:55:00
12:15 PM,71.6,60.8,69,30.04,10.0,South,17.3,23.0,N/A,,Mostly Cloudy,170,2013-04-23 17:15:00
12:35 PM,71.6,60.8,69,30.03,10.0,South,17.3,24.2,N/A,,Mostly Cloudy,170,2013-04-23 17:35:00
12:55 PM,71.6,59.0,64,30.02,10.0,South,17.3,24.2,N/A,,Mostly Cloudy,180,2013-04-23 17:55:00
1:15 PM,71.6,59.0,64,30.01,10.0,South,19.6,25.3,N/A,,Mostly Cloudy,170,2013-04-23 18:15:00
1:35 PM,71.6,59.0,64,30.01,10.0,South,20.7,24.2,N/A,,Mostly Cloudy,170,2013-04-23 18:35:00
1:55 PM,71.6,59.0,64,30.00,10.0,South,17.3,24.2,N/A,,Scattered Clouds,180,2013-04-23 18:55:00
2:15 PM,73.4,60.8,65,30.00,10.0,South,17.3,23.0,N/A,,Scattered Clouds,170,2013-04-23 19:15:00
2:35 PM,73.4,60.8,65,29.99,10.0,South,15.0,20.7,N/A,,Scattered Clouds,170,2013-04-23 19:35:00
2:55 PM,73.4,60.8,65,29.98,10.0,South,16.1,23.0,N/A,,Scattered Clouds,170,2013-04-23 19:55:00
3:15 PM,75.2,60.8,61,29.97,10.0,South,19.6,25.3,N/A,,Scattered Clouds,170,2013-04-23 20:15:00
3:35 PM,77.0,60.8,57,29.96,10.0,South,16.1,20.7,N/A,,Scattered Clouds,180,2013-04-23 20:35:00
3:55 PM,75.2,60.8,61,29.95,10.0,South,15.0,26.5,N/A,,Scattered Clouds,170,2013-04-23 20:55:00
4:15 PM,77.0,60.8,57,29.94,10.0,South,18.4,24.2,N/A,,Scattered Clouds,170,2013-04-23 21:15:00
4:35 PM,75.2,60.8,61,29.94,10.0,South,17.3,21.9,N/A,,Scattered Clouds,180,2013-04-23 21:35:00
4:55 PM,75.2,60.8,61,29.94,10.0,South,18.4,23.0,N/A,,Scattered Clouds,180,2013-04-23 21:55:00
5:15 PM,73.4,60.8,65,29.93,10.0,South,15.0,18.4,N/A,,Scattered Clouds,170,2013-04-23 22:15:00
5:35 PM,73.4,60.8,65,29.93,10.0,South,13.8,23.0,N/A,,Scattered Clouds,170,2013-04-23 22:35:00
5:55 PM,75.2,60.8,61,29.92,10.0,South,15.0,20.7,N/A,,Scattered Clouds,170,2013-04-23 22:55:00
6:15 PM,73.4,60.8,65,29.92,10.0,South,15.0,20.7,N/A,,Clear,170,2013-04-23 23:15:00
6:35 PM,73.4,60.8,65,29.91,10.0,SSE,13.8,-,N/A,,Clear,160,2013-04-23 23:35:00
6:55 PM,71.6,60.8,69,29.92,10.0,South,16.1,-,N/A,,Clear,170,2013-04-23 23:55:00
7:15 PM,71.6,60.8,69,29.92,10.0,South,11.5,-,N/A,,Scattered Clouds,170,2013-04-24 00:15:00
7:35 PM,71.6,60.8,69,29.93,10.0,South,8.1,-,N/A,,Scattered Clouds,170,2013-04-24 00:35:00
7:55 PM,69.8,60.8,73,29.93,10.0,SSE,8.1,-,N/A,,Scattered Clouds,160,2013-04-24 00:55:00
8:15 PM,69.8,60.8,73,29.92,10.0,SSE,9.2,-,N/A,,Mostly Cloudy,150,2013-04-24 01:15:00
8:35 PM,69.8,60.8,73,29.93,10.0,SSE,9.2,-,N/A,,Mostly Cloudy,150,2013-04-24 01:35:00
8:55 PM,69.8,60.8,73,29.93,10.0,SSE,9.2,-,N/A,,Mostly Cloudy,150,2013-04-24 01:55:00
9:15 PM,69.8,60.8,73,29.95,10.0,SSE,8.1,-,N/A,,Mostly Cloudy,160,2013-04-24 02:15:00
9:35 PM,69.8,60.8,73,29.95,10.0,SSE,8.1,-,N/A,,Mostly Cloudy,150,2013-04-24 02:35:00
9:55 PM,69.8,60.8,73,29.95,10.0,SSE,6.9,-,N/A,,Scattered Clouds,160,2013-04-24 02:55:00
10:15 PM,68.0,62.6,83,29.95,10.0,SSE,6.9,-,N/A,,Scattered Clouds,160,2013-04-24 03:15:00
10:35 PM,68.0,62.6,83,29.94,10.0,SSE,8.1,-,N/A,,Mostly Cloudy,150,2013-04-24 03:35:00
10:55 PM,68.0,62.6,83,29.94,7.0,SSE,8.1,-,N/A,Rain,Rain,160,2013-04-24 03:55:00
11:15 PM,68.0,62.6,83,29.94,10.0,SSE,9.2,-,N/A,,Mostly Cloudy,160,2013-04-24 04:15:00
11:35 PM,66.2,62.6,88,29.95,2.0,SSW,3.5,-,0.30,Rain,Heavy Rain,210,2013-04-24 04:35:00
11:55 PM,66.2,62.6,88,29.95,3.0,SW,5.8,-,0.46,Rain-Thunderstorm,Heavy Thunderstorms and Rain,230,2013-04-24 04:55:00